Weather History for El Centro, CA

Change the Weather History Date:

Wednesday, October 26, 2011

  Actual Average Record
Temperature  
Mean Temperature 74 °F -  
Max Temperature 84 °F 81 °F 95 °F (1999)
Min Temperature 63 °F 57 °F 54 °F (1996)
Cooling Degree Days 8    
Growing Degree Days 24 (Base 50)    
Moisture  
Dew Point 34 °F    
Average Humidity 29    
Maximum Humidity 54    
Minimum Humidity 7    
Precipitation  
Precipitation 0.00 in - - ()
Sea Level Pressure  
Sea Level Pressure 29.94 in    
Wind  
Wind Speed 18 mph (NW)    
Max Wind Speed 23 mph    
Max Gust Speed 31 mph    
Visibility 10 miles    
Events      
Averages and records for this station are not official NWS values.
T = Trace of Precipitation, MM = Missing Value Source: NWS Daily Summary

Daily Weather History Graph

Daily Weather History Graph

Search for Another Location

Airport:

Trip Planner

Search our weather history database for the weather conditions in past years. The results will help you decide how hot, cold, wet, or windy it might be!

Date:

Astronomy

Oct. 26, 2011 Rise Set
Actual Time 6:55 AM PDT 5:57 PM PDT
Civil Twilight 6:30 AM PDT 6:22 PM PDT
Nautical Twilight 6:01 AM PDT 6:51 PM PDT
Astronomical Twilight 5:32 AM PDT 7:20 PM PDT
Moon 6:45 AM PDT (10/26) 5:47 PM PDT (10/26)
Length of Visible Light 11h 52m
Length of Day
11h 02m
Waning Crescent, 0% of the Moon is Illuminated
Oct 26
Waning Crescent
Oct 26
New
Nov 2
First Quarter
Nov 10
Full
Nov 18
Last Quarter

Hourly Weather History & Observations

Time (PDT) Temp. Dew Point Humidity Pressure Visibility Wind Dir Wind Speed Gust Speed Precip Events Conditions
12:56 AM 66.9 °F 46.9 °F 49% 29.88 in 10.0 mi West 23.0 mph - N/A   Clear
1:56 AM 66.9 °F 46.9 °F 49% 29.88 in 10.0 mi West 21.9 mph - N/A   Clear
2:56 AM 66.0 °F 48.0 °F 52% 29.89 in 10.0 mi West 18.4 mph - N/A   Clear
3:26 AM - - N/A% - - North - - N/A   Unknown
3:56 AM 66.0 °F 48.9 °F 54% 29.89 in 10.0 mi West 19.6 mph 31.1 mph N/A   Clear
4:56 AM 66.0 °F 48.0 °F 52% 29.89 in 10.0 mi West 23.0 mph - N/A   Clear
5:56 AM 64.9 °F 45.0 °F 48% 29.91 in 10.0 mi West 16.1 mph - N/A   Clear
6:56 AM 66.0 °F 44.1 °F 45% 29.92 in 10.0 mi West 20.7 mph 28.8 mph N/A   Clear
7:56 AM 66.0 °F 44.1 °F 45% 29.94 in 10.0 mi West 11.5 mph - N/A   Clear
8:56 AM 72.0 °F 42.1 °F 34% 29.96 in 10.0 mi West 13.8 mph - N/A   Clear
9:55 AM - - N/A% - - North - - N/A   Unknown
9:56 AM 75.0 °F 41.0 °F 29% 29.98 in 10.0 mi West 17.3 mph - N/A   Clear
10:56 AM 78.1 °F 41.0 °F 27% 29.97 in 10.0 mi WNW 16.1 mph - N/A   Clear
11:56 AM 81.0 °F 37.9 °F 21% 29.96 in 10.0 mi NNW 15.0 mph 24.2 mph N/A   Clear
12:56 PM 82.9 °F 36.0 °F 19% 29.94 in 10.0 mi NNW 15.0 mph 26.5 mph N/A   Clear
1:56 PM 82.9 °F 34.0 °F 17% 29.92 in 10.0 mi North 13.8 mph 20.7 mph N/A   Clear
2:56 PM 84.9 °F 28.9 °F 13% 29.91 in 10.0 mi North 16.1 mph - N/A   Partly Cloudy
3:56 PM 84.0 °F 25.0 °F 12% 29.91 in 10.0 mi NNW 18.4 mph 26.5 mph N/A   Clear
4:56 PM 82.0 °F 10.9 °F 7% 29.91 in 10.0 mi NNW 20.7 mph 27.6 mph N/A   Clear
5:56 PM 75.9 °F 26.1 °F 16% 29.91 in 10.0 mi North 19.6 mph - N/A   Clear
6:56 PM 72.0 °F 26.1 °F 18% 29.95 in 10.0 mi North 15.0 mph - N/A   Clear
7:56 PM 69.1 °F 27.0 °F 21% 29.96 in 10.0 mi North 13.8 mph - N/A   Clear
8:56 PM 64.9 °F 21.9 °F 19% 29.99 in 10.0 mi NW 6.9 mph - N/A   Clear
9:56 PM 64.9 °F 7.0 °F 10% 30.00 in 10.0 mi NNW 10.4 mph - N/A   Clear
10:56 PM 63.0 °F 15.1 °F 16% 30.01 in 10.0 mi North 16.1 mph - N/A   Clear
11:56 PM 64.0 °F 21.0 °F 19% 30.03 in 10.0 mi North 11.5 mph - N/A   Clear